User: anonymous   Login
Location: Radomski Observatory
(40.2854°N, 79.5145°W)
Time: 05:15:39
(UTC-05:00)
Language:

Uosat F - Orbit

View from above orbital plane
View from above orbital plane
View from above satellite
View from above satellite

Ground track
Ground track

The orbit data is extracted from the following two-line orbital elements,

1 21575U 91050B   16339.07556947  .00000026  00000-0  22702-4 0  9995
2 21575  98.7630 344.7716 0007730 153.3811 206.7775 14.40773416333185
Epoch (UTC): 04 December 2016 01:48:49
Eccentricity: 0.0007730
inclination: 98.7630°
perigee height: 750 km
apogee height: 761 km
right ascension of ascending node: 344.7716°
argument of perigee: 153.3811°
revolutions per day: 14.40773416
mean anomaly at epoch: 206.7775°
orbit number at epoch: 33318

The dashed part of the orbit path shows where the satellite is in the earth's shadow,  

DLR